Menominee, MI

3:07 PM CST on February 24, 2017 (GMT -0600)
Menominee-Marinette Twin County

Weather History for KMNM - January, 2014

Change the Weather History Date:

Thursday, January 9, 2014

  Actual Average Record
Temperature  
Mean Temperature 0 °F -  
Max Temperature 17 °F 22 °F 55 °F (2002)
Min Temperature -16 °F 6 °F -19 °F (1977)
Degree Days  
Heating Degree Days 64    
Moisture  
Dew Point -14 °F    
Average Humidity 46    
Maximum Humidity 79    
Minimum Humidity 16    
Precipitation  
Precipitation 0.00 in - - ()
Sea Level Pressure  
Sea Level Pressure 30.32 in    
Wind  
Wind Speed 3 mph (SW)    
Max Wind Speed 14 mph    
Max Gust Speed 22 mph    
Visibility 10 miles    
Events      
Averages and records for this station are not official NWS values.
T = Trace of Precipitation, MM = Missing Value Source: NWS Daily Summary

Daily Weather History Graph

Daily Weather History Graph

Search for Another Location

Airport or City:

Trip Planner

Search our weather history database for the weather conditions in past years. The results will help you decide how hot, cold, wet, or windy it might be!

Date:

Astronomy

Jan. 09, 2014 Rise Set
Actual Time 7:28 AM CST 4:27 PM CST
Civil Twilight 6:54 AM CST 5:00 PM CST
Nautical Twilight 6:18 AM CST 5:37 PM CST
Astronomical Twilight 5:42 AM CST 6:13 PM CST
Moon 12:00 PM CST (1/9) 1:28 AM CST (1/9)
Length of Visible Light 10h 05m
Length of Day
8h 59m
Waxing Gibbous, 66% of the Moon is Illuminated
Jan 9
Waxing Gibbous
Jan 15
Full
Jan 23
Last Quarter
Jan 30
New
Feb 6
First Quarter

Hourly Weather History & Observations

Time (CST) Temp. Windchill Dew Point Humidity Pressure Visibility Wind Dir Wind Speed Gust Speed Precip Events Conditions
12:15 AM -7.6 °F -20.6 °F - N/A% 30.43 in 10.0 mi NW 5.8 mph - N/A   Clear
12:35 AM -5.8 °F -14.5 °F -29.2 °F 32% 30.45 in 10.0 mi West 3.5 mph - N/A   Clear
12:55 AM -5.8 °F -14.5 °F -29.2 °F 32% 30.45 in 10.0 mi West 3.5 mph - N/A   Clear
1:15 AM -7.6 °F - -29.2 °F 34% 30.45 in 10.0 mi Calm Calm - N/A   Clear
1:35 AM -9.4 °F - -29.2 °F 37% 30.45 in 10.0 mi Calm Calm - N/A   Clear
1:55 AM -11.2 °F - -29.2 °F 41% 30.46 in 10.0 mi Calm Calm - N/A   Clear
2:15 AM -11.2 °F -23.0 °F -27.4 °F 45% 30.47 in 10.0 mi SW 4.6 mph - N/A   Clear
2:35 AM -11.2 °F - - N/A% 30.47 in 10.0 mi Calm Calm - N/A   Clear
2:55 AM -11.2 °F - -29.2 °F 41% 30.47 in 10.0 mi Calm Calm - N/A   Clear
3:15 AM -11.2 °F - -25.6 °F 49% 30.46 in 10.0 mi Calm Calm - N/A   Clear
3:35 AM -14.8 °F - -29.2 °F 48% 30.45 in 9.0 mi Calm Calm - N/A   Clear
3:55 AM -14.8 °F - -29.2 °F 48% 30.45 in 10.0 mi Calm Calm - N/A   Clear
4:15 AM -14.8 °F - -27.4 °F 53% 30.46 in 10.0 mi Calm Calm - N/A   Clear
4:35 AM -14.8 °F -24.8 °F -27.4 °F 53% 30.46 in 10.0 mi SW 3.5 mph - N/A   Clear
4:55 AM -13.0 °F - -25.6 °F 53% 30.45 in 10.0 mi Calm Calm - N/A   Clear
5:15 AM -14.8 °F - -27.4 °F 53% 30.44 in 10.0 mi Calm Calm - N/A   Clear
5:35 AM -14.8 °F - -27.4 °F 53% 30.44 in 10.0 mi Calm Calm - N/A   Clear
5:55 AM -14.8 °F - -29.2 °F 48% 30.44 in 10.0 mi Calm Calm - N/A   Clear
6:15 AM -16.6 °F - - N/A% 30.44 in 10.0 mi Calm Calm - N/A   Clear
6:35 AM -16.6 °F - -29.2 °F 53% 30.43 in 10.0 mi Calm Calm - N/A   Clear
6:55 AM -16.6 °F - -29.2 °F 53% 30.44 in 10.0 mi Calm Calm - N/A   Clear
7:15 AM -16.6 °F - - N/A% 30.43 in 10.0 mi Calm Calm - N/A   Clear
7:35 AM -16.6 °F - -27.4 °F 58% 30.43 in 10.0 mi Calm Calm - N/A   Clear
7:55 AM -16.6 °F - -27.4 °F 58% 30.43 in 10.0 mi Calm Calm - N/A   Clear
8:15 AM -14.8 °F - -25.6 °F 58% 30.44 in 9.0 mi Calm Calm - N/A   Clear
8:35 AM -11.2 °F - -20.2 °F 64% 30.44 in 10.0 mi Calm Calm - N/A   Clear
8:55 AM -7.6 °F - -25.6 °F 41% 30.43 in 10.0 mi Calm Calm - N/A   Clear
9:15 AM -7.6 °F - - N/A% 30.44 in 10.0 mi Calm Calm - N/A   Clear
9:35 AM -5.8 °F -18.4 °F - N/A% 30.43 in 10.0 mi SW 5.8 mph - N/A   Clear
9:55 AM -2.2 °F -16.8 °F - N/A% 30.43 in 10.0 mi SW 8.1 mph - N/A   Clear
10:15 AM -0.4 °F -15.7 °F -29.2 °F 25% 30.42 in 10.0 mi SW 9.2 mph - N/A   Clear
10:35 AM -0.4 °F -13.4 °F -27.4 °F 27% 30.41 in 10.0 mi SW 6.9 mph - N/A   Clear
10:55 AM 3.2 °F -6.2 °F -23.8 °F 28% 30.40 in 10.0 mi WSW 4.6 mph - N/A   Clear
11:15 AM 6.8 °F -3.5 °F -20.2 °F 28% 30.38 in 10.0 mi WSW 5.8 mph - N/A   Clear
11:35 AM 8.6 °F -7.7 °F -16.6 °F 31% 30.36 in 10.0 mi SW 13.8 mph - N/A   Clear
11:55 AM 8.6 °F -7.0 °F -13.0 °F 37% 30.34 in 10.0 mi SW 12.7 mph - N/A   Clear
12:15 PM 10.4 °F -5.4 °F -13.0 °F 34% 30.33 in 10.0 mi SW 13.8 mph 21.9 mph N/A   Clear
12:35 PM 10.4 °F -2.4 °F -13.0 °F 34% 30.31 in 10.0 mi WSW 9.2 mph - N/A   Clear
12:55 PM 10.4 °F -4.8 °F -14.8 °F 31% 30.30 in 10.0 mi SW 12.7 mph 16.1 mph N/A   Clear
1:15 PM 10.4 °F -3.3 °F -13.0 °F 34% 30.29 in 10.0 mi SW 10.4 mph - N/A   Clear
1:35 PM 12.2 °F 0.7 °F -11.2 °F 34% 30.28 in 10.0 mi SW 8.1 mph - N/A   Clear
1:55 PM 12.2 °F -1.8 °F -9.4 °F 38% 30.27 in 10.0 mi SW 11.5 mph - N/A   Clear
2:35 PM 15.8 °F 5.1 °F -5.8 °F 38% 30.27 in 10.0 mi SW 8.1 mph - N/A   Clear
2:55 PM 15.8 °F 6.1 °F -5.8 °F 38% 30.27 in 10.0 mi SW 6.9 mph - N/A   Clear
3:15 PM 14.0 °F 3.9 °F -5.8 °F 41% 30.27 in 10.0 mi SW 6.9 mph - N/A   Mostly Cloudy
3:35 PM 14.0 °F 3.9 °F -2.2 °F 49% 30.26 in 10.0 mi SW 6.9 mph - N/A   Overcast
3:55 PM 15.8 °F 7.2 °F -0.4 °F 49% 30.26 in 10.0 mi SW 5.8 mph - N/A   Overcast
4:15 PM 15.8 °F 8.6 °F -23.8 °F 16% 30.25 in 10.0 mi SSW 4.6 mph - N/A   Overcast
5:15 PM 14.0 °F - -7.6 °F 38% 30.23 in 10.0 mi Calm Calm - N/A   Overcast
5:35 PM 14.0 °F 8.2 °F -5.8 °F 41% 30.23 in 10.0 mi WSW 3.5 mph - N/A   Overcast
5:55 PM 14.0 °F 8.2 °F -4.0 °F 45% 30.22 in 10.0 mi SW 3.5 mph - N/A   Overcast
6:15 PM 15.8 °F 10.2 °F -0.4 °F 49% 30.21 in 10.0 mi SW 3.5 mph - N/A   Overcast
6:35 PM 15.8 °F 10.2 °F -0.4 °F 49% 30.21 in 10.0 mi WSW 3.5 mph - N/A   Overcast
6:55 PM 15.8 °F 10.2 °F 1.4 °F 53% 30.20 in 10.0 mi SW 3.5 mph - N/A   Overcast
7:15 PM 15.8 °F - 3.2 °F 58% 30.19 in 10.0 mi Calm Calm - N/A   Overcast
7:35 PM 15.8 °F - - N/A% 30.18 in 10.0 mi Calm Calm - N/A   Overcast
7:55 PM 15.8 °F 10.2 °F -16.6 °F 23% 30.17 in 10.0 mi SW 3.5 mph - N/A   Overcast
8:15 PM 15.8 °F - -5.8 °F 38% 30.17 in 10.0 mi Calm Calm - N/A   Scattered Clouds
8:35 PM 15.8 °F - -0.4 °F 49% 30.16 in 10.0 mi Calm Calm - N/A   Clear
8:55 PM 12.2 °F - 1.4 °F 62% 30.15 in 10.0 mi Calm Calm - N/A   Clear
9:15 PM 12.2 °F - 1.4 °F 62% 30.15 in 10.0 mi Calm Calm - N/A   Scattered Clouds
9:35 PM 10.4 °F - 3.2 °F 73% 30.14 in 10.0 mi Calm Calm - N/A   Overcast
9:55 PM 12.2 °F - 6.8 °F 79% 30.14 in 10.0 mi Calm Calm - N/A   Overcast
10:15 PM 14.0 °F - 6.8 °F 73% 30.13 in 9.0 mi Calm Calm - N/A   Overcast
10:35 PM 15.8 °F - -9.4 °F 32% 30.12 in 10.0 mi Calm Calm - N/A   Overcast
10:55 PM 17.6 °F 12.3 °F 8.6 °F 68% 30.11 in 10.0 mi SW 3.5 mph - N/A   Overcast
11:15 PM 17.6 °F 12.3 °F 10.4 °F 73% 30.10 in 10.0 mi WSW 3.5 mph - N/A   Overcast
11:35 PM 17.6 °F 10.7 °F 10.4 °F 73% 30.10 in 10.0 mi SSW 4.6 mph - N/A   Overcast
11:55 PM 17.6 °F 12.3 °F 10.4 °F 73% 30.08 in 10.0 mi WSW 3.5 mph - N/A   Overcast